Other Public Products
Issued by NWS Charleston, SC

Current Version | Previous Version | Graphics & Text | Print | Product List | Glossary On
Versions: 1 2 3 4 5 6 7 8 9 10 11 12 13 14 15 16 17 18 19 20 21 22 23 24 25 26 27 28 29 30 31 32 33 34 35 36 37 38 39 40 41 42 43 44 45 46 47 48 49 50
000 FPUS82 KCHS 221643 OPUCHS TEST...KCHS/KSAV Gateway Observations...TEST National Weather Service Charleston SC 1200 PM EDT FRI SEP 22 2017 NOTE: "fair" indicates few or no clouds below 12,000 feet with no significant weather and/or obstructions to visibility. SCZ050-WAZ558-NCZ071-TXZ119-213-PAZ071-DCZ001-FLZ074-172-MI076- NYZ176-178-MAZ016-IL014-TNZ027-NJZ106-GAZ044-MD014-221700- ...Gateway Observations for Charleston International... CITY SKY/WX TMP DP RH WIND PRES REMARKS Chas Airport MOSUNNY 84 73 69 VRB5 30.05F HX 90 Seattle MOSUNNY 54 48 80 S5 30.06S Charlotte MOSUNNY 85 66 53 NE7 30.10F Dallas DFW CLOUDY 83 72 69 S13 29.98R Dallas Love PTSUNNY 82 72 71 SE10 30.00R Philladelphia CLOUDY 75 58 55 NW7 30.03F Wash National CLOUDY 80 65 59 E5 30.07F Baltimore CLOUDY 79 66 64 NW3 30.05F Miami TSTM 80 77 90 N6 29.91S Detroit SUNNY 83 69 62 S3 30.13F Newark PTSUNNY 80 51 36 N17 30.00F Laguardia MOSUNNY 75 54 47 N16G24 29.99F J F K MOSUNNY 78 53 41 N17G29 29.99F Boston Logan LGT RAIN 59 55 87 N24G37 30.01F Ft. Lauderdale LGT RAIN 81 77 88 NE6 29.90F Chicago O`Hare MOSUNNY 89 67 47 SW12 30.07S HX 92 Chicago Midway MOSUNNY 88 68 51 SW8 30.08S HX 91 Houston Bush MOSUNNY 85 74 69 E8 29.99S HX 92 Houston Hobby MOSUNNY 87 72 60 SE9 29.99R HX 93 Nashville SUNNY 85 70 60 CALM 30.09F Atlanta MOSUNNY 82 69 64 E7 30.09F $$ GAZ044-118-TXZ119-213-NCZ071-DCZ001-MDZ014-506-PAZ021-071-NJZ106- NYZ176-178-MAZ106-OHZ011-021-055-MIZ076-KYZ091-ILZ014-INZ047- MNZ060-ONZ431-221700- ...Gateway Observations for Savannah International... CITY SKY/WX TMP DP RH WIND PRES REMARKS Savannah Arpt MOSUNNY 87 70 56 E7 30.05F HX 92 Atlanta MOSUNNY 82 69 64 E7 30.09F Charlotte MOSUNNY 85 66 53 NE7 30.10F Dallas DFW CLOUDY 83 72 69 S13 29.98R Houston Bush MOSUNNY 85 74 69 E8 29.99S HX 92 Wash National CLOUDY 80 65 59 E5 30.07F Wash Dulles CLOUDY 79 66 64 N6 30.08F Baltimore CLOUDY 79 66 64 NW3 30.05F Philadelphia CLOUDY 75 58 55 NW7 30.03F Newark PTSUNNY 80 51 36 N17 30.00F Laguardia MOSUNNY 75 54 47 N16G24 29.99F J F K MOSUNNY 78 53 41 N17G29 29.99F Boston LGT RAIN 59 55 87 N24G37 30.01F Pittsburg PTSUNNY 76 62 62 VRB3 30.15F Akron PTSUNNY 84 62 47 CALM 30.15S Cleveland MOSUNNY 88 63 43 CALM 30.15S Cincinnati MOSUNNY 85 69 58 CALM 30.13F Columbus SUNNY 83 67 59 CALM 30.12F Detroit SUNNY 83 69 62 S3 30.13F Chicago O`Hare MOSUNNY 89 67 47 SW12 30.07S HX 92 Minneapolis CLOUDY 81 72 74 S9 29.85S Indianapolis MOSUNNY 87 70 56 VRB3 30.12S HX 92 Toronto Canada MOSUNNY 79 61 53 VRB7 30.15F $$

USA.gov is the U.S. government's official web portal to all federal, state and local government web resources and services.